Location: Augustenthal
(51.7167°N, 10.2833°E)
Time: 17:10:28
(UTC+00:00)

ALOS 2 - Pass Details

Date: 18 May 2021
Orbit: 630 x 632 km, 97.9° (Epoch: 22 June)

Event Time Altitude Azimuth Distance (km) Brightness Sun altitude
Exits shadow 23:29:23 25° 234° (SW) 1,269 3.8 -18.4°
Maximum altitude 23:30:42 30° 265° (W) 1,140 3.8 -18.4°
Drops below altitude 10° 23:34:35 10° 327° (NNW) 2,026 5.9 -18.4°
Sets 23:37:02 0° 338° (NNW) 2,939 7.2 -18.4°
